Total_Precipitation_Accumulation
0.07 0.09 0.07 0.13 0.06 0.04 0.04 0.05 0.04 0.03 0.03 0.04 0.03 0.03 0.04 0.04 0.02 0.03 0.03 0.03 0.02 0.03 0.04 0.01 0.02 0.02 0.00 0.01 0.00 0.00 0.00 0.00 0.00 0.00 0.00 0.00 0.00 0.00 0.00 0.00 0.00 0.00 0.00 0.00 0.00 0.00 0.00 0.00 0.00 0.00 0.00 0.00 0.00 0.00 0.00 0.00 0.00 0.00 0.00 0.00 0.00 0.00 0.00 0.00 0.00 0.00 0.00 0.00 0.00 0.00 0.00 0.00 0.00 0.00 0.00 0.00 0.00 0.00 0.01 0.00 0.01 0.01 0.12 0.10 0.12 0.18 0.10 0.12
0.06 0.06 0.11 0.05 0.05 0.06 0.05 0.04 0.05 0.03 0.02 0.02 0.03 0.03 0.03 0.03 0.03 0.02 0.03 0.02 0.03 0.02 0.01 0.03 0.01 0.01 0.01 0.00 0.00 0.00 0.00 0.00 0.00 0.00 0.00 0.00 0.00 0.00 0.00 0.00 0.00 0.00 0.00 0.00 0.00 0.00 0.00 0.00 0.00 0.00 0.00 0.00 0.00 0.00 0.00 0.00 0.00 0.00 0.00 0.00 0.00 0.00 0.00 0.00 0.00 0.00 0.00 0.00 0.00 0.00 0.00 0.00 0.00 0.00 0.00 0.02 0.00 0.00 0.01 0.03 0.04 0.07 0.12 0.15 0.12 0.09 0.15 0.12
0.06 0.05 0.07 0.06 0.06 0.07 0.07 0.05 0.05 0.04 0.04 0.03 0.02 0.03 0.03 0.03 0.03 0.02 0.02 0.02 0.02 0.01 0.01 0.01 0.02 0.01 0.00 0.00 0.00 0.00 0.00 0.00 0.00 0.00 0.00 0.00 0.00 0.00 0.00 0.00 0.00 0.00 0.00 0.00 0.00 0.00 0.00 0.00 0.00 0.00 0.00 0.00 0.00 0.00 0.00 0.00 0.00 0.00 0.00 0.00 0.00 0.00 0.00 0.00 0.00 0.00 0.00 0.00 0.00 0.00 0.00 0.00 0.00 0.00 0.00 0.03 0.01 0.00 0.01 0.03 0.06 0.15 0.25 0.17 0.17 0.15 0.19 0.21
0.07 0.06 0.05 0.06 0.05 0.06 0.06 0.08 0.05 0.05 0.06 0.05 0.03 0.04 0.03 0.03 0.03 0.03 0.03 0.03 0.01 0.02 0.02 0.01 0.01 0.01 0.01 0.00 0.00 0.00 0.00 0.00 0.00 0.00 0.00 0.00 0.00 0.00 0.00 0.00 0.00 0.00 0.00 0.00 0.00 0.00 0.00 0.00 0.00 0.00 0.00 0.00 0.00 0.00 0.00 0.00 0.00 0.00 0.00 0.00 0.00 0.00 0.00 0.00 0.00 0.00 0.00 0.00 0.00 0.00 0.00 0.00 0.00 0.00 0.00 0.00 0.03 0.03 0.01 0.02 0.10 0.13 0.23 0.17 0.21 0.17 0.19 0.38
0.06 0.07 0.06 0.05 0.06 0.06 0.06 0.06 0.06 0.06 0.07 0.05 0.04 0.04 0.04 0.02 0.03 0.03 0.03 0.02 0.02 0.01 0.02 0.01 0.01 0.01 0.00 0.00 0.00 0.00 0.00 0.00 0.00 0.00 0.00 0.00 0.00 0.00 0.00 0.00 0.00 0.00 0.00 0.00 0.00 0.00 0.00 0.00 0.00 0.00 0.00 0.00 0.00 0.00 0.00 0.00 0.00 0.00 0.00 0.00 0.00 0.00 0.00 0.00 0.00 0.00 0.00 0.00 0.00 0.00 0.00 0.00 0.00 0.00 0.00 0.00 0.02 0.13 0.07 0.07 0.01 0.02 0.34 0.38 0.15 0.17 0.32 0.40
0.05 0.05 0.04 0.04 0.05 0.06 0.06 0.06 0.05 0.05 0.04 0.03 0.05 0.04 0.04 0.04 0.03 0.03 0.03 0.03 0.04 0.03 0.01 0.02 0.01 0.00 0.00 0.00 0.00 0.00 0.00 0.00 0.00 0.00 0.00 0.00 0.00 0.00 0.00 0.00 0.00 0.00 0.00 0.00 0.00 0.00 0.00 0.00 0.00 0.00 0.00 0.00 0.00 0.00 0.00 0.00 0.00 0.00 0.00 0.00 0.00 0.00 0.00 0.00 0.00 0.00 0.00 0.00 0.00 0.00 0.00 0.00 0.00 0.00 0.00 0.00 0.01 0.09 0.06 0.06 0.07 0.02 0.10 0.31 0.20 0.36 0.46 0.80
0.04 0.05 0.04 0.05 0.07 0.06 0.06 0.09 0.05 0.05 0.07 0.04 0.03 0.04 0.04 0.06 0.05 0.04 0.03 0.04 0.03 0.04 0.01 0.02 0.01 0.00 0.00 0.00 0.00 0.00 0.00 0.00 0.00 0.00 0.00 0.00 0.00 0.00 0.00 0.00 0.00 0.00 0.00 0.00 0.00 0.00 0.00 0.00 0.00 0.00 0.00 0.00 0.00 0.00 0.00 0.00 0.00 0.00 0.00 0.00 0.00 0.00 0.00 0.00 0.00 0.00 0.00 0.00 0.00 0.00 0.00 0.00 0.00 0.00 0.00 0.00 0.00 0.00 0.03 0.07 0.02 0.09 0.10 0.17 0.16 0.32 0.41 0.53
0.05 0.05 0.09 0.06 0.05 0.04 0.04 0.05 0.05 0.04 0.04 0.04 0.05 0.04 0.04 0.03 0.06 0.04 0.03 0.03 0.03 0.03 0.03 0.01 0.01 0.00 0.00 0.00 0.00 0.00 0.00 0.00 0.00 0.00 0.00 0.00 0.00 0.00 0.00 0.00 0.00 0.00 0.00 0.00 0.00 0.00 0.00 0.00 0.00 0.00 0.00 0.00 0.00 0.00 0.00 0.00 0.00 0.00 0.00 0.00 0.00 0.00 0.00 0.00 0.00 0.00 0.00 0.00 0.00 0.00 0.00 0.00 0.00 0.00 0.00 0.02 0.01 0.01 0.03 0.03 0.02 0.36 0.33 0.25 0.16 0.31 0.45 0.75
0.04 0.05 0.06 0.08 0.05 0.03 0.04 0.04 0.04 0.03 0.05 0.04 0.03 0.04 0.06 0.05 0.06 0.06 0.04 0.04 0.03 0.03 0.03 0.02 0.00 0.00 0.00 0.00 0.00 0.00 0.00 0.00 0.00 0.00 0.00 0.00 0.00 0.00 0.00 0.00 0.00 0.00 0.00 0.00 0.00 0.00 0.00 0.00 0.00 0.00 0.00 0.00 0.00 0.00 0.00 0.00 0.00 0.00 0.00 0.00 0.00 0.00 0.00 0.00 0.00 0.00 0.00 0.00 0.00 0.00 0.00 0.00 0.00 0.00 0.02 0.18 0.07 0.04 0.06 0.07 0.31 0.61 0.41 0.71 0.66 0.48 0.44 0.61
0.05 0.06 0.05 0.07 0.05 0.03 0.02 0.03 0.03 0.04 0.04 0.03 0.03 0.03 0.04 0.06 0.05 0.06 0.04 0.03 0.03 0.04 0.02 0.02 0.01 0.00 0.00 0.00 0.00 0.00 0.00 0.00 0.00 0.00 0.00 0.00 0.00 0.00 0.00 0.00 0.00 0.00 0.00 0.00 0.00 0.00 0.00 0.00 0.00 0.00 0.00 0.00 0.00 0.00 0.00 0.00 0.00 0.00 0.00 0.00 0.00 0.00 0.00 0.00 0.00 0.00 0.00 0.00 0.00 0.00 0.00 0.00 0.00 0.00 0.12 0.54 0.49 0.09 0.09 0.24 0.43 0.38 0.30 0.65 0.50 0.69 0.94 0.89
0.07 0.04 0.06 0.08 0.06 0.04 0.05 0.04 0.03 0.08 0.05 0.06 0.05 0.06 0.05 0.05 0.07 0.05 0.06 0.03 0.03 0.02 0.02 0.01 0.01 0.01 0.01 0.00 0.00 0.00 0.00 0.00 0.00 0.00 0.00 0.00 0.00 0.00 0.00 0.00 0.00 0.00 0.00 0.00 0.00 0.00 0.00 0.00 0.00 0.00 0.00 0.00 0.00 0.00 0.00 0.00 0.00 0.00 0.00 0.00 0.00 0.00 0.00 0.00 0.00 0.00 0.00 0.00 0.00 0.00 0.00 0.00 0.00 0.00 0.05 0.14 0.53 0.70 0.50 0.56 1.09 0.25 0.28 0.70 1.19 1.44 1.06 1.42
0.05 0.09 0.09 0.04 0.08 0.14 0.05 0.07 0.08 0.07 0.09 0.08 0.05 0.06 0.07 0.05 0.05 0.02 0.03 0.06 0.04 0.03 0.01 0.01 0.02 0.05 0.01 0.01 0.01 0.00 0.00 0.00 0.00 0.00 0.00 0.00 0.00 0.00 0.00 0.00 0.00 0.00 0.00 0.00 0.00 0.00 0.00 0.00 0.00 0.00 0.00 0.00 0.00 0.00 0.00 0.00 0.00 0.00 0.00 0.00 0.00 0.00 0.00 0.00 0.00 0.00 0.00 0.00 0.00 0.00 0.00 0.00 0.01 0.14 0.06 0.10 0.25 0.82 0.84 0.63 0.37 0.61 0.57 0.75 0.92 0.86 0.81 0.99
0.06 0.06 0.05 0.09 0.09 0.12 0.06 0.09 0.06 0.08 0.05 0.07 0.06 0.06 0.06 0.05 0.08 0.08 0.03 0.05 0.02 0.03 0.02 0.02 0.01 0.04 0.04 0.04 0.00 0.00 0.00 0.00 0.00 0.00 0.00 0.00 0.00 0.00 0.00 0.00 0.00 0.00 0.00 0.00 0.00 0.00 0.00 0.00 0.00 0.00 0.00 0.00 0.00 0.00 0.00 0.00 0.00 0.00 0.00 0.00 0.00 0.00 0.00 0.00 0.00 0.00 0.00 0.00 0.00 0.00 0.02 0.02 0.04 0.06 0.23 0.29 0.33 0.77 0.89 0.54 0.43 0.80 1.29 2.28 1.95 1.25 1.27 1.41
0.07 0.05 0.06 0.06 0.05 0.06 0.09 0.09 0.06 0.08 0.07 0.05 0.07 0.13 0.06 0.06 0.06 0.04 0.08 0.05 0.06 0.05 0.05 0.03 0.06 0.03 0.12 0.01 0.00 0.00 0.00 0.00 0.00 0.00 0.00 0.00 0.00 0.00 0.00 0.00 0.00 0.00 0.00 0.00 0.00 0.00 0.00 0.00 0.00 0.00 0.00 0.00 0.00 0.00 0.00 0.00 0.00 0.00 0.00 0.00 0.00 0.00 0.00 0.00 0.00 0.00 0.00 0.00 0.00 0.00 0.04 0.09 0.16 0.17 0.32 0.34 0.49 0.36 0.74 1.37 1.69 1.59 2.36 1.31 1.23 1.45 1.53 1.67
0.08 0.08 0.06 0.06 0.11 0.08 0.09 0.10 0.11 0.09 0.07 0.06 0.05 0.05 0.07 0.06 0.06 0.04 0.05 0.05 0.05 0.05 0.03 0.09 0.06 0.07 0.12 0.00 0.00 0.00 0.00 0.00 0.00 0.00 0.00 0.00 0.00 0.00 0.00 0.00 0.00 0.00 0.00 0.00 0.00 0.00 0.00 0.00 0.00 0.00 0.00 0.00 0.00 0.00 0.00 0.00 0.00 0.00 0.00 0.00 0.00 0.00 0.00 0.00 0.00 0.00 0.00 0.00 0.00 0.00 0.02 0.20 0.09 0.33 0.32 0.23 0.27 0.58 0.46 0.77 1.01 1.73 2.01 1.72 1.38 1.44 1.51 2.39
0.06 0.09 0.07 0.08 0.11 0.07 0.04 0.09 0.08 0.07 0.06 0.05 0.06 0.05 0.07 0.13 0.13 0.10 0.13 0.14 0.05 0.09 0.06 0.08 0.04 0.03 0.01 0.01 0.00 0.00 0.00 0.00 0.00 0.00 0.00 0.00 0.00 0.00 0.00 0.00 0.00 0.00 0.00 0.00 0.00 0.00 0.00 0.00 0.00 0.00 0.00 0.00 0.00 0.00 0.00 0.00 0.00 0.00 0.00 0.00 0.00 0.00 0.00 0.00 0.00 0.00 0.00 0.00 0.00 0.00 0.04 0.03 0.25 0.24 0.22 0.22 0.32 0.19 0.29 0.84 1.04 1.87 1.58 1.82 1.48 0.92 0.91 0.61
0.08 0.06 0.09 0.08 0.09 0.11 0.07 0.07 0.06 0.13 0.07 0.04 0.03 0.03 0.06 0.05 0.06 0.21 0.07 0.15 0.06 0.04 0.06 0.05 0.02 0.04 0.12 0.00 0.00 0.00 0.00 0.00 0.00 0.00 0.00 0.00 0.00 0.00 0.00 0.00 0.00 0.00 0.00 0.00 0.00 0.00 0.00 0.00 0.00 0.00 0.00 0.00 0.00 0.00 0.00 0.00 0.00 0.00 0.00 0.00 0.00 0.00 0.00 0.00 0.00 0.00 0.00 0.00 0.00 0.00 0.00 0.02 0.05 0.12 0.12 0.23 0.18 0.22 0.75 1.50 1.64 1.73 1.20 0.95 1.04 0.71 0.64 0.45
0.07 0.07 0.09 0.08 0.06 0.08 0.04 0.04 0.05 0.06 0.10 0.07 0.04 0.03 0.04 0.05 0.05 0.07 0.09 0.11 0.16 0.08 0.08 0.05 0.02 0.05 0.00 0.00 0.00 0.00 0.00 0.00 0.00 0.00 0.00 0.00 0.00 0.00 0.00 0.00 0.00 0.00 0.00 0.00 0.00 0.00 0.00 0.00 0.00 0.00 0.00 0.00 0.00 0.00 0.00 0.00 0.00 0.00 0.00 0.00 0.00 0.00 0.00 0.00 0.00 0.00 0.00 0.00 0.00 0.00 0.02 0.01 0.05 0.08 0.19 0.31 0.72 1.37 0.64 1.30 0.34 0.23 0.23 0.76 0.74 0.81 0.83 0.80
0.08 0.09 0.09 0.07 0.07 0.05 0.07 0.05 0.03 0.05 0.11 0.12 0.05 0.05 0.02 0.05 0.11 0.07 0.05 0.16 0.19 0.33 0.16 0.17 0.11 0.03 0.02 0.00 0.00 0.00 0.00 0.00 0.00 0.00 0.00 0.00 0.00 0.00 0.00 0.00 0.00 0.00 0.00 0.00 0.00 0.00 0.00 0.00 0.00 0.00 0.00 0.00 0.00 0.00 0.00 0.00 0.00 0.00 0.01 0.00 0.00 0.00 0.00 0.00 0.00 0.00 0.00 0.00 0.00 0.03 0.06 0.06 0.06 0.14 0.52 1.50 1.28 1.13 1.45 1.27 0.36 0.58 0.51 0.51 0.53 0.88 1.35 1.01
0.11 0.11 0.10 0.08 0.09 0.05 0.05 0.02 0.03 0.07 0.50 0.06 0.07 0.07 0.12 0.20 0.18 0.21 0.09 0.18 0.18 0.05 0.02 0.06 0.00 0.00 0.00 0.00 0.00 0.00 0.00 0.00 0.00 0.00 0.00 0.00 0.00 0.00 0.00 0.00 0.00 0.00 0.00 0.00 0.00 0.00 0.00 0.00 0.00 0.00 0.00 0.00 0.00 0.00 0.00 0.00 0.00 0.00 0.00 0.00 0.00 0.00 0.00 0.00 0.00 0.00 0.00 0.00 0.00 0.00 0.03 0.05 0.07 0.14 0.60 1.49 2.47 1.14 0.94 0.23 0.15 0.32 0.26 0.39 0.64 0.75 0.70 0.71
0.09 0.11 0.09 0.12 0.09 0.08 0.03 0.03 0.02 0.06 0.16 0.21 0.12 0.24 0.17 0.09 0.23 0.14 0.15 0.12 0.06 0.02 0.01 0.05 0.03 0.01 0.00 0.00 0.00 0.00 0.00 0.00 0.00 0.00 0.00 0.00 0.00 0.00 0.00 0.00 0.00 0.00 0.00 0.00 0.00 0.00 0.00 0.00 0.00 0.00 0.00 0.00 0.00 0.00 0.00 0.00 0.00 0.00 0.00 0.00 0.00 0.00 0.00 0.00 0.00 0.00 0.00 0.00 0.01 0.01 0.01 0.06 0.05 0.12 0.51 0.44 2.42 1.46 1.27 0.76 0.37 0.62 1.16 0.67 0.45 0.49 0.39 0.67
0.10 0.09 0.14 0.11 0.10 0.08 0.06 0.03 0.03 0.06 0.21 0.18 0.19 0.11 0.07 0.17 0.12 0.21 0.06 0.17 0.06 0.02 0.03 0.01 0.01 0.01 0.00 0.00 0.00 0.00 0.00 0.00 0.00 0.00 0.00 0.00 0.00 0.00 0.00 0.00 0.00 0.00 0.00 0.00 0.00 0.00 0.00 0.00 0.00 0.00 0.00 0.00 0.00 0.00 0.00 0.00 0.00 0.00 0.00 0.00 0.00 0.00 0.00 0.00 0.00 0.00 0.00 0.00 0.02 0.02 0.03 0.07 0.11 0.13 0.85 0.42 0.39 1.75 1.41 0.44 0.73 1.35 0.93 1.86 1.76 1.51 1.36 1.04
0.22 0.10 0.10 0.12 0.13 0.12 0.16 0.14 0.09 0.18 0.23 0.15 0.15 0.09 0.10 0.12 0.09 0.18 0.14 0.22 0.10 0.04 0.05 0.01 0.01 0.00 0.00 0.00 0.00 0.00 0.00 0.00 0.00 0.00 0.00 0.00 0.00 0.00 0.00 0.00 0.00 0.00 0.00 0.00 0.00 0.00 0.00 0.00 0.00 0.00 0.00 0.00 0.00 0.00 0.00 0.00 0.00 0.00 0.00 0.00 0.00 0.00 0.01 0.03 0.00 0.00 0.00 0.00 0.01 0.01 0.03 0.12 0.13 0.28 0.28 0.32 0.35 0.37 1.18 0.71 0.70 1.06 1.02 0.63 1.25 1.07 0.83 1.01
0.17 0.25 0.28 0.32 0.22 0.19 0.19 0.29 0.18 0.19 0.12 0.06 0.09 0.16 0.17 0.27 0.13 0.14 0.22 0.33 0.10 0.06 0.00 0.00 0.01 0.00 0.00 0.00 0.00 0.00 0.00 0.00 0.00 0.00 0.00 0.00 0.00 0.00 0.00 0.00 0.00 0.00 0.00 0.00 0.00 0.00 0.00 0.00 0.00 0.00 0.00 0.00 0.00 0.00 0.00 0.00 0.00 0.00 0.00 0.00 0.00 0.01 0.00 0.00 0.04 0.00 0.00 0.00 0.00 0.02 0.05 0.18 0.19 0.28 0.34 0.35 0.36 0.28 0.85 0.71 0.57 0.41 0.78 0.80 1.12 0.86 0.81 0.64
0.13 0.30 0.25 0.14 0.28 0.17 0.34 0.35 0.07 0.08 0.08 0.15 0.12 0.22 0.43 0.12 0.25 0.28 0.26 0.24 0.04 0.03 0.00 0.01 0.00 0.00 0.00 0.00 0.00 0.00 0.00 0.00 0.00 0.00 0.00 0.00 0.00 0.00 0.00 0.00 0.00 0.00 0.00 0.00 0.00 0.00 0.00 0.00 0.00 0.00 0.00 0.00 0.00 0.00 0.00 0.00 0.00 0.00 0.00 0.00 0.00 0.00 0.01 0.00 0.00 0.00 0.01 0.02 0.02 0.02 0.06 0.27 0.24 0.50 0.21 0.28 0.30 0.36 0.47 0.50 0.85 1.00 0.59 0.66 0.74 0.81 0.75 0.72
0.24 0.19 0.23 0.20 0.33 0.58 0.67 0.15 0.20 0.14 0.12 0.30 0.13 0.15 0.26 0.41 0.21 0.37 0.25 0.45 0.12 0.04 0.04 0.01 0.00 0.00 0.00 0.00 0.00 0.00 0.00 0.00 0.00 0.00 0.00 0.00 0.00 0.00 0.00 0.00 0.00 0.00 0.00 0.00 0.00 0.00 0.01 0.00 0.00 0.00 0.00 0.00 0.00 0.00 0.00 0.00 0.00 0.00 0.01 0.00 0.00 0.00 0.00 0.00 0.01 0.00 0.01 0.02 0.06 0.00 0.04 0.17 0.19 0.31 0.33 0.35 0.16 0.25 0.50 0.44 0.46 1.21 0.61 0.31 0.39 0.50 0.95 0.74
0.16 0.19 0.19 0.30 0.39 0.72 0.19 0.31 0.26 0.18 0.15 0.21 0.23 0.38 0.16 0.33 0.70 0.28 0.29 0.22 0.16 0.12 0.00 0.02 0.00 0.01 0.00 0.00 0.00 0.00 0.01 0.01 0.00 0.00 0.00 0.00 0.00 0.00 0.00 0.00 0.00 0.00 0.00 0.00 0.00 0.00 0.00 0.00 0.00 0.00 0.00 0.00 0.00 0.00 0.00 0.00 0.00 0.01 0.01 0.00 0.00 0.00 0.00 0.00 0.01 0.00 0.03 0.00 0.01 0.00 0.03 0.24 0.26 0.17 0.16 0.37 0.37 0.33 0.50 0.37 0.32 0.15 0.92 0.52 0.54 1.02 0.71 0.50
0.22 0.52 0.23 0.29 0.49 0.15 0.16 0.22 0.19 0.23 0.39 0.40 0.12 0.34 0.39 0.28 0.30 0.54 0.14 0.32 0.11 0.01 0.04 0.05 0.00 0.01 0.00 0.00 0.00 0.00 0.00 0.00 0.00 0.00 0.00 0.00 0.00 0.00 0.00 0.00 0.00 0.00 0.00 0.00 0.01 0.00 0.00 0.00 0.00 0.00 0.00 0.00 0.00 0.00 0.00 0.00 0.00 0.00 0.00 0.00 0.00 0.00 0.00 0.00 0.01 0.01 0.02 0.04 0.07 0.01 0.03 0.14 0.20 0.26 0.26 0.29 0.56 0.42 0.59 0.36 0.24 0.24 0.28 0.57 1.17 1.11 0.74 0.59
0.36 0.24 0.33 0.39 0.23 0.61 0.13 0.46 0.39 0.34 0.51 0.43 0.31 0.36 0.24 1.12 0.43 0.43 0.40 0.19 0.22 0.02 0.00 0.17 0.00 0.00 0.00 0.00 0.00 0.00 0.00 0.00 0.00 0.00 0.00 0.00 0.00 0.00 0.00 0.00 0.00 0.00 0.00 0.00 0.01 0.01 0.00 0.00 0.00 0.00 0.00 0.00 0.00 0.00 0.00 0.00 0.00 0.00 0.00 0.00 0.00 0.00 0.00 0.00 0.02 0.00 0.09 0.02 0.07 0.04 0.08 0.05 0.33 0.19 0.38 0.35 0.20 0.26 0.24 0.20 0.26 0.27 0.26 0.38 0.71 0.96 0.58 0.42
0.28 0.39 0.23 0.34 0.18 0.25 0.44 0.28 0.51 0.77 0.42 0.57 0.39 0.18 0.25 0.63 0.83 0.32 0.47 0.07 0.13 0.20 0.02 0.10 0.03 0.02 0.00 0.00 0.00 0.00 0.00 0.00 0.00 0.00 0.00 0.00 0.00 0.00 0.00 0.00 0.00 0.00 0.00 0.00 0.00 0.00 0.01 0.00 0.00 0.00 0.00 0.00 0.00 0.00 0.00 0.00 0.00 0.00 0.00 0.00 0.00 0.00 0.01 0.01 0.01 0.02 0.11 0.05 0.02 0.01 0.05 0.00 0.27 0.25 0.19 0.23 0.17 0.12 0.14 0.18 0.27 0.29 0.29 0.33 0.62 0.55 0.46 0.64
0.14 0.22 0.44 0.31 0.37 0.35 0.22 0.32 0.84 0.68 0.53 0.21 0.24 0.45 0.72 0.54 0.72 0.21 0.13 0.12 0.02 0.29 0.03 0.07 0.01 0.00 0.03 0.00 0.01 0.00 0.00 0.00 0.00 0.00 0.00 0.00 0.00 0.00 0.00 0.00 0.00 0.00 0.00 0.00 0.00 0.00 0.00 0.00 0.00 0.00 0.00 0.00 0.00 0.00 0.00 0.00 0.00 0.00 0.00 0.01 0.00 0.03 0.03 0.03 0.03 0.02 0.09 0.00 0.02 0.03 0.03 0.05 0.17 0.49 0.44 0.15 0.19 0.11 0.11 0.12 0.20 0.23 0.17 0.21 0.32 0.41 0.45 0.50
0.14 0.11 0.39 0.23 0.41 0.28 0.27 0.70 0.64 0.27 0.47 0.09 0.20 0.29 0.61 0.58 0.29 0.42 0.16 0.19 0.50 0.76 0.29 0.21 0.02 0.05 0.04 0.02 0.00 0.00 0.00 0.00 0.00 0.00 0.00 0.00 0.00 0.00 0.00 0.00 0.00 0.00 0.01 0.00 0.04 0.00 0.00 0.00 0.00 0.00 0.00 0.00 0.00 0.00 0.00 0.00 0.00 0.00 0.00 0.01 0.17 0.18 0.01 0.15 0.04 0.07 0.00 0.01 0.04 0.02 0.02 0.10 0.05 0.17 0.37 0.10 0.10 0.06 0.06 0.09 0.16 0.15 0.13 0.13 0.23 0.17 0.24 0.18
0.05 0.04 0.09 0.36 0.23 0.45 0.24 0.26 0.49 0.69 0.42 0.20 0.64 0.92 0.59 0.66 0.35 0.12 0.20 0.49 1.26 0.30 0.33 0.20 0.14 0.02 0.05 0.01 0.03 0.00 0.00 0.02 0.02 0.00 0.00 0.00 0.00 0.00 0.00 0.00 0.00 0.00 0.04 0.03 0.03 0.00 0.02 0.00 0.00 0.00 0.00 0.00 0.00 0.00 0.01 0.01 0.00 0.00 0.01 0.09 0.05 0.12 0.05 0.02 0.07 0.02 0.07 0.02 0.03 0.03 0.07 0.10 0.44 0.41 0.27 0.18 0.14 0.11 0.07 0.11 0.09 0.11 0.16 0.17 0.20 0.16 0.22 0.20
0.01 0.01 0.15 0.08 0.27 0.21 0.17 0.27 0.28 0.28 0.31 0.24 0.38 0.46 1.01 0.36 0.16 0.23 0.34 0.65 1.21 0.29 0.10 0.19 0.09 0.08 0.03 0.07 0.13 0.00 0.01 0.01 0.00 0.00 0.00 0.02 0.00 0.01 0.00 0.00 0.00 0.00 0.00 0.07 0.02 0.01 0.02 0.14 0.00 0.00 0.01 0.00 0.00 0.00 0.00 0.04 0.00 0.00 0.00 0.01 0.07 0.10 0.05 0.02 0.05 0.09 0.02 0.12 0.08 0.04 0.02 0.12 0.16 1.93 0.15 0.12 0.11 0.02 0.04 0.11 0.07 0.10 0.17 0.14 0.20 0.11 0.18 0.48
0.01 0.02 0.05 0.08 0.11 0.07 0.08 0.12 0.22 0.17 0.37 0.47 0.37 0.57 0.44 0.18 0.22 0.34 0.73 0.72 0.73 0.37 0.25 0.06 0.17 0.07 0.05 0.02 0.01 0.01 0.01 0.15 0.00 0.01 0.00 0.00 0.03 0.00 0.01 0.00 0.00 0.00 0.01 0.00 0.05 0.00 0.01 0.08 0.01 0.00 0.00 0.00 0.00 0.00 0.00 0.01 0.02 0.00 0.01 0.01 0.04 0.04 0.01 0.07 0.22 0.05 0.14 0.08 0.03 0.10 0.09 0.34 0.81 1.56 0.47 0.16 0.06 0.06 0.06 0.08 0.07 0.17 0.15 0.13 0.21 0.29 0.27 0.43
0.01 0.05 0.03 0.08 0.06 0.03 0.02 0.41 0.16 0.21 0.31 0.47 0.54 0.44 0.31 0.24 0.53 0.96 0.91 0.51 0.48 0.35 0.21 0.08 0.11 0.08 0.02 0.04 0.00 0.05 0.04 0.09 0.13 0.02 0.06 0.00 0.01 0.03 0.00 0.00 0.00 0.00 0.03 0.00 0.09 0.05 0.00 0.10 0.01 0.01 0.00 0.00 0.00 0.00 0.00 0.00 0.23 0.07 0.00 0.05 0.01 0.01 0.02 0.01 0.00 0.01 0.00 0.00 0.07 0.02 0.14 0.52 0.41 1.34 0.43 0.48 0.18 0.12 0.08 0.11 0.10 0.10 0.10 0.21 0.30 0.25 0.38 0.51
0.09 0.06 0.11 0.04 0.02 0.01 0.05 0.22 0.13 0.18 0.26 0.33 0.52 0.41 0.19 0.25 0.46 0.55 0.73 0.58 0.64 0.42 0.28 0.33 0.10 0.04 0.05 0.03 0.06 0.00 0.12 0.02 0.12 0.02 0.21 0.01 0.06 0.00 0.00 0.00 0.00 0.00 0.00 0.00 0.06 0.00 0.11 0.22 0.01 0.01 0.00 0.00 0.00 0.00 0.00 0.00 0.00 0.00 0.03 0.04 0.00 0.00 0.03 0.03 0.09 0.08 0.01 0.01 0.10 0.03 0.08 0.48 0.22 0.76 0.90 0.51 0.24 0.28 0.20 0.15 0.08 0.17 0.23 0.32 0.51 0.79 0.92 1.04
0.11 0.16 0.11 0.05 0.02 0.03 0.06 0.17 0.13 0.13 0.34 0.50 0.43 0.35 0.35 0.53 0.54 0.54 0.53 0.63 0.45 0.39 0.50 0.53 0.27 0.01 0.04 0.06 0.06 0.02 0.06 0.03 0.26 0.03 0.18 0.05 0.28 0.00 0.02 0.02 0.00 0.00 0.00 0.00 0.02 0.03 0.00 0.13 0.05 0.00 0.00 0.01 0.00 0.00 0.00 0.00 0.00 0.00 0.06 0.02 0.01 0.08 0.05 0.03 0.00 0.03 0.03 0.04 0.10 0.11 0.25 0.16 0.16 0.81 0.66 0.58 0.24 0.45 0.53 0.40 0.33 0.26 0.41 0.80 0.59 0.81 1.14 1.60
0.28 0.37 0.41 0.07 0.04 0.04 0.05 0.13 0.17 0.20 0.51 0.46 0.36 0.41 0.47 0.50 0.43 0.45 0.54 0.36 0.22 0.55 0.38 0.38 0.18 0.00 0.06 0.02 0.06 0.04 0.05 0.16 0.08 0.18 0.10 0.27 0.22 0.09 0.11 0.01 0.03 0.00 0.00 0.00 0.01 0.03 0.00 0.05 0.07 0.00 0.00 0.02 0.00 0.00 0.01 0.01 0.00 0.00 0.00 0.00 0.00 0.00 0.13 0.08 0.01 0.20 0.01 0.17 0.03 0.21 0.16 0.26 0.54 0.60 0.19 0.22 0.20 0.26 0.24 0.28 0.41 0.73 0.65 0.94 1.07 1.11 1.20 1.15
0.52 0.48 0.57 0.07 0.01 0.01 0.11 0.15 0.50 0.53 0.72 0.54 0.41 0.47 0.50 0.51 0.35 0.47 0.20 0.17 0.40 0.23 0.78 0.48 0.11 0.10 0.01 0.04 0.01 0.12 0.06 0.09 0.07 0.24 0.07 0.45 0.10 0.08 0.09 0.01 0.08 0.00 0.00 0.00 0.01 0.00 0.05 0.01 0.14 0.08 0.00 0.00 0.04 0.00 0.02 0.00 0.04 0.00 0.00 0.00 0.00 0.01 0.04 0.00 0.10 0.03 0.07 0.08 0.16 0.16 0.19 0.60 0.60 0.11 0.22 0.23 0.17 0.33 0.30 0.26 0.29 0.54 0.87 0.55 0.86 1.18 1.25 1.14
0.51 0.99 0.80 0.01 0.03 0.04 0.24 0.41 0.56 0.62 0.57 0.41 0.47 0.45 0.34 0.46 0.39 0.34 0.15 0.12 0.11 0.19 0.28 0.30 0.21 0.21 0.03 0.03 0.01 0.02 0.04 0.02 0.08 0.15 0.05 0.30 0.17 0.35 0.00 0.02 0.01 0.20 0.00 0.01 0.01 0.01 0.01 0.00 0.04 0.12 0.04 0.02 0.01 0.00 0.00 0.00 0.02 0.01 0.00 0.03 0.01 0.05 0.11 0.09 0.05 0.00 0.08 0.06 0.12 0.12 0.22 0.42 0.63 0.18 0.26 0.49 0.63 0.37 0.54 0.37 0.42 0.77 0.27 0.53 0.62 0.89 0.56 0.71
0.68 0.96 0.83 0.05 0.06 0.09 0.28 0.55 0.33 0.42 0.52 0.47 0.67 0.67 0.62 0.48 0.46 0.30 0.15 0.11 0.31 0.11 0.05 0.09 0.03 0.05 0.06 0.05 0.03 0.00 0.01 0.02 0.14 0.06 0.18 0.35 0.29 0.09 0.07 0.00 0.01 0.00 0.07 0.06 0.15 0.11 0.03 0.05 0.10 0.06 0.17 0.37 0.09 0.05 0.01 0.01 0.01 0.01 0.00 0.02 0.01 0.02 0.01 0.12 0.08 0.19 0.05 0.11 0.04 0.21 0.15 0.53 0.54 0.41 0.42 0.20 0.42 0.36 0.53 0.57 0.69 0.77 0.75 0.98 1.23 1.38 0.87 0.60
1.00 1.76 0.52 0.12 0.05 0.13 0.40 0.53 0.37 0.53 0.66 0.50 0.52 0.54 0.49 0.54 0.34 0.16 0.13 0.22 0.23 0.08 0.14 0.10 0.06 0.13 0.01 0.01 0.02 0.03 0.01 0.06 0.05 0.20 0.10 0.14 0.30 0.10 0.05 0.01 0.00 0.02 0.01 0.07 0.04 0.07 0.00 0.01 0.03 0.06 0.06 0.08 0.01 0.00 0.01 0.00 0.00 0.00 0.00 0.00 0.01 0.07 0.05 0.05 0.12 0.24 0.14 0.16 0.11 0.13 0.06 0.81 0.38 0.95 0.60 0.49 0.88 0.62 0.41 0.57 0.76 0.54 0.68 0.79 0.95 0.63 0.95 0.39
1.51 1.82 0.65 0.37 0.04 0.17 0.60 0.58 0.55 0.48 0.53 0.44 0.50 0.50 0.54 0.40 0.22 0.32 0.69 0.28 0.17 0.16 0.19 0.12 0.03 0.02 0.08 0.00 0.00 0.04 0.02 0.04 0.01 0.05 0.16 0.07 0.24 0.03 0.07 0.06 0.05 0.20 0.05 0.40 0.12 0.10 0.15 0.03 0.07 0.17 0.17 0.25 0.22 0.09 0.04 0.02 0.01 0.01 0.06 0.03 0.01 0.07 0.04 0.09 0.04 0.07 0.03 0.06 0.19 0.11 0.25 0.74 0.92 0.36 0.68 0.42 0.20 0.31 1.59 1.26 1.31 0.68 0.33 0.88 0.88 1.13 1.14 0.70
1.66 0.83 0.79 0.56 0.14 0.56 0.85 0.66 0.98 0.72 0.58 0.58 0.73 0.72 0.71 0.39 0.34 0.19 0.37 0.32 0.23 0.10 0.13 0.13 0.04 0.13 0.01 0.00 0.01 0.00 0.01 0.02 0.13 0.03 0.05 0.07 0.36 0.01 0.04 0.01 0.08 0.28 0.08 0.08 0.00 0.06 0.12 0.35 0.07 0.14 0.37 0.44 0.39 0.47 0.53 0.23 0.12 0.04 0.01 0.03 0.03 0.02 0.13 0.14 0.05 0.05 0.04 0.02 0.04 0.13 0.19 0.43 0.42 0.30 0.39 0.38 0.39 0.44 0.47 0.50 0.51 0.75 0.99 0.33 0.50 0.56 0.40 0.75
1.56 0.70 0.50 1.25 0.84 1.01 0.54 0.70 0.85 1.02 0.68 0.68 0.52 0.41 0.57 0.54 0.33 0.40 0.12 0.13 0.34 0.07 0.13 0.08 0.04 0.05 0.02 0.01 0.02 0.01 0.02 0.01 0.05 0.12 0.06 0.18 0.14 0.02 0.07 0.05 0.01 0.11 0.04 0.01 0.05 0.03 0.32 0.14 0.34 0.20 0.28 0.60 0.51 0.31 0.15 0.01 0.11 0.12 0.17 0.03 0.12 0.01 0.04 0.04 0.11 0.15 0.10 0.21 0.15 0.26 0.19 0.47 0.52 0.39 0.27 0.22 0.41 0.36 0.80 0.38 0.48 0.54 0.41 0.78 0.64 0.92 0.60 0.72
1.25 0.58 0.29 0.63 0.46 0.77 1.00 0.61 0.78 1.11 0.95 0.75 0.62 0.45 0.63 0.42 0.35 0.36 0.06 0.39 0.11 0.35 0.13 0.16 0.04 0.06 0.08 0.01 0.07 0.06 0.02 0.07 0.02 0.04 0.07 0.13 0.12 0.11 0.02 0.07 0.07 0.01 0.02 0.05 0.07 0.08 0.23 0.20 0.18 0.23 0.17 0.26 0.15 0.16 0.22 0.04 0.16 0.14 0.20 0.24 0.14 0.09 0.10 0.18 0.03 0.11 0.23 0.09 0.27 0.64 0.29 0.21 0.33 0.26 0.21 0.24 0.23 0.20 0.37 0.26 0.16 0.21 0.46 0.40 0.55 0.63 0.61 0.28
1.08 0.61 0.34 0.30 0.75 0.64 0.84 0.89 0.87 1.20 1.04 0.75 0.61 0.52 0.56 0.53 0.46 0.36 0.36 0.30 0.39 0.12 0.18 0.10 0.07 0.02 0.01 0.04 0.05 0.03 0.08 0.09 0.05 0.05 0.11 0.17 0.07 0.13 0.10 0.03 0.15 0.10 0.07 0.10 0.07 0.10 0.34 0.32 0.40 0.23 0.41 0.22 0.36 0.28 0.10 0.09 0.08 0.10 0.13 0.14 0.23 0.19 0.16 0.19 0.12 0.09 0.26 0.05 0.43 0.42 0.27 0.16 0.20 0.18 0.18 0.19 0.14 0.20 0.25 0.28 0.23 0.25 0.17 0.09 0.12 0.19 0.32 0.22
1.71 0.25 0.41 0.12 0.51 0.63 0.62 0.87 0.94 1.12 1.43 0.94 0.94 0.65 0.61 0.39 0.42 0.77 0.23 0.91 0.16 0.34 0.16 0.09 0.10 0.12 0.07 0.05 0.06 0.11 0.13 0.22 0.03 0.11 0.23 0.38 0.25 0.30 0.31 0.26 0.05 0.08 0.05 0.05 0.13 0.07 0.10 0.31 0.46 0.29 0.35 0.34 0.24 0.16 0.19 0.12 0.10 0.17 0.10 0.11 0.19 0.12 0.12 0.12 0.10 0.06 0.13 0.20 0.15 0.27 0.05 0.11 0.20 0.24 0.13 0.16 0.14 0.20 0.28 0.23 0.22 0.12 0.10 0.28 0.10 0.11 0.09 0.25
0.96 0.94 0.44 0.12 0.24 0.14 0.33 0.60 0.96 1.15 1.28 0.98 0.74 0.45 0.44 0.39 0.43 0.28 0.14 0.30 0.35 0.31 0.40 0.16 0.19 0.15 0.10 0.10 0.12 0.36 0.30 0.25 0.24 0.06 0.33 0.08 0.19 0.41 0.59 0.50 0.60 0.07 0.02 0.10 0.06 0.30 0.13 0.23 0.07 0.39 0.56 0.37 0.52 0.30 0.22 0.27 0.22 0.26 0.07 0.04 0.06 0.10 0.30 0.12 0.35 0.39 0.12 0.16 0.40 0.42 0.12 0.17 0.33 0.17 0.15 0.14 0.12 0.16 0.65 0.51 0.41 0.22 0.09 0.24 0.18 0.05 0.04 0.07
1.26 0.87 0.68 0.74 0.43 0.30 0.54 0.45 0.52 0.65 0.98 1.09 1.01 0.60 0.55 0.31 0.33 0.15 0.20 0.31 0.11 0.21 0.26 0.26 0.07 0.22 0.28 0.16 0.21 0.32 0.20 0.26 0.14 0.22 0.25 0.11 0.16 0.12 0.15 0.30 0.03 0.62 0.53 0.63 0.54 0.85 0.13 0.44 0.19 0.31 0.44 0.51 0.26 0.61 0.63 0.74 0.60 0.36 0.22 0.32 0.19 0.28 0.35 0.22 0.23 0.17 0.26 0.42 0.48 0.41 0.25 0.22 0.55 0.30 0.38 0.15 0.11 0.10 0.13 0.20 0.21 0.07 0.07 0.10 0.06 0.13 0.07 0.33
1.12 0.55 0.54 0.84 0.61 0.35 0.54 0.31 0.67 0.49 0.62 0.68 0.85 0.81 0.84 0.58 0.38 0.48 0.31 0.17 0.33 0.31 0.27 0.52 0.17 0.43 0.21 0.32 0.19 0.20 0.08 0.20 0.15 0.14 0.19 0.07 0.06 0.11 0.07 0.09 0.03 0.15 0.15 0.16 0.52 0.45 0.41 0.34 0.31 0.62 0.37 0.63 0.52 0.60 0.45 0.42 0.40 0.45 0.37 0.36 0.25 0.29 0.14 0.31 0.18 0.15 0.24 0.42 0.42 0.55 0.40 0.29 0.26 0.17 0.11 0.23 0.11 0.12 0.21 0.08 0.11 0.10 0.08 0.07 0.08 0.07 0.09 0.08